Find Local Weather

World > North America > United States > Georgia

Cleveland, Georgia Regional Weather

Lat: 34.60N, Lon: 83.76W
Wx Zone: GAZ016
Warning FLW WEATHER ALERT - (More Info. Click Here) Warning
Feedback
Expires:201810151700;;227329
ASUS42 KFFC 151610
RWRGA 
WEATHER ROUNDUP FOR GEORGIA
NATIONAL WEATHER SERVICE PEACHTREE CITY GA
1200 PM EDT MON OCT 15 2018

NOTE: "FAIR" INDICATES FEW OR NO CLOUDS BELOW 12,000 FEET WITH NO
SIGNIFICANT WEATHER AND/OR OBSTRUCTIONS TO VISIBILITY. 

* = USE WITH CAUTION. THE STATIONS MARKED WITH AN ASTERISK MAY NOT
REPORT WEATHER SUCH AS PRECIPITATION, FOG, OR THUNDER AND ARE NOT 
QUALITY CONTROLLED BY NWS.

THE REMARK "TC" DENOTES TEMPERATURE READING IN DEGREES CELSIUS.


GAZ001>058-151700-
NORTH GEORGIA
  
CITY           SKY/WX    TMP DP  RH WIND       PRES   REMARKS
ATLANTA        CLOUDY    70  66  87 S5        30.18S FOG              
ATHENS         PTSUNNY   74  65  73 CALM      30.19F                  
CHAMBLEE       CLOUDY    70  65  84 CALM      30.19S                  
PEACHTREE CITY CLOUDY    75  69  81 CALM      30.17F                  
ROME           CLOUDY    70  64  81 CALM      30.17R                  
WEST ATLANTA   CLOUDY    71  68  90 CALM      30.18R                  
GAINESVILLE    CLOUDY    70  65  84 SW5       30.22F                  
CARTERSVILLE   CLOUDY    72  67  84 SE5       30.18S                  

  
CITY           SKY/WX    TMP DP  RH WIND       PRES   REMARKS
DALTON*        CLOUDY    70  64  83 S3        30.20R                  
LAWRENCEVILLE* CLOUDY    70  65  84 NE3       30.19F                  
MARIETTA       CLOUDY    70  65  85 SE2       30.18S                  
KENNESAW*      CLOUDY    71  66  84 SE6       30.19S                  
CANTON*        CLOUDY    72  63  73 CALM      30.21F                  
BLAIRSVILLE*   PTSUNNY   71  62  73 W3        30.23S                  
$$


SKY/WX - Weather  TMP - Temperature  DP - Dew Point  RH - Relative Humidity
WIND - Wind Direction/Speed PRES - Barometric Pressure